Location: Maccacari
(45.1333°N, 11.1333°E)
Time: 22:48:15
(UTC+00:00)

ATLAS 3B R/B - Pass Details

Date: 18 September 2020
Orbit: 1016 x 1179 km, 63.8° (Epoch: 04 October)

Event Time Altitude Azimuth Distance (km) Brightness Sun altitude
Rises 21:22:51 0° 321° (NW) 3,839 6.6 -37.8°
Reaches altitude 10° 21:25:27 10° 320° (NW) 2,903 5.7 -38.1°
Enters shadow 21:30:03 46° 310° (NW) 1,436 3.5 -38.5°
